Location: Ash Swamp
(41.5170°N, 74.6157°W)
Time: 02:43:13
(UTC+00:00)

Cosmos 1862 - Pass Details

Date: 14 July 2020
Orbit: 539 x 555 km, 82.5° (Epoch: 14 August)

Event Time Altitude Azimuth Distance (km) Brightness Sun altitude
Exits shadow 04:39:42 46° 15° (NNE) 740 4.2 -26.6°
Drops below altitude 10° 04:42:35 10° 10° (N) 1,824 6.9 -26.7°
Sets 04:44:46 0° 9° (N) 2,725 8.1 -26.7°
